This demonstration page uses our WeatherBlox Daily Observations layout. Learn more.

Left ArrowRight Arrow

Hourly Observations for October 1, 2018

Temp ( °F °C ) Dew Point ( °F °C ) Humidity (%) Winds ( mph kmh ) Pressure ( in mb ) Visibility ( mi km ) Precip ( " mm )
12:07 am 00:07 Cloudy with Light Rain 47 8.3 47 8.3 100 100 NE 8 13 30.15 1021 2 3 0.00 0.03
12:21 am 00:21 Cloudy with Light Rain 47 8.3 47 8.3 100 100 ENE 7 11 30.15 1021 2 3 0.01 0.25
12:26 am 00:26 Cloudy with Light Rain 46 8 46 8 100 100 ENE 9 15 30.15 1021 2 3 0.00 0.00
12:44 am 00:44 Cloudy with Light Rain 46 8 46 8 100 100 NE 7 11 30.15 1021 3 4 0.00 0.00
12:53 am 00:53 Cloudy with Light Rain 47 8.3 47 8.3 100 100 ENE 8 13 30.16 1021 3 4 0.02 0.51
1:05 am 01:05 Cloudy with Mist and Fog 47 8.3 47 8.3 100 100 ENE 8 13 30.15 1021 3 5 0.00 0.03
1:15 am 01:15 Cloudy with Light Rain 47 8.3 47 8.3 100 100 ENE 9 15 30.15 1021 3 4 0.00 0.03
1:18 am 01:18 Cloudy with Mist and Fog 46 8 46 8 100 100 ENE 8 13 30.15 1021 3 5 0.00 0.00
1:20 am 01:20 Cloudy with Mist and Fog 46 8 46 8 100 100 ENE 8 13 30.15 1021 3 4 0.00 0.00
1:32 am 01:32 Cloudy with Mist and Fog 46 8 46 8 100 100 ENE 8 13 30.15 1021 3 5 0.00 0.00
1:37 am 01:37 Cloudy with Mist and Fog 47 8.3 47 8.3 100 100 ENE 9 15 30.15 1021 3 4 0.00 0.03
1:53 am 01:53 Cloudy with Mist and Fog 47 8.3 47 8.3 100 100 ENE 8 13 30.15 1021 3 4 0.01 0.25
2:06 am 02:06 Cloudy with Mist and Fog 46 8 46 8 100 100 NE 7 11 30.15 1021 3 5 0.00 0.00
2:17 am 02:17 Cloudy with Mist and Fog 47 8.3 47 8.3 100 100 NE 7 11 30.15 1021 3 4 0.00 0.00
2:35 am 02:35 Cloudy with Mist and Fog 46 8 46 8 100 100 ENE 7 11 30.12 1020 2 3 0.00 0.00
2:53 am 02:53 Cloudy with Mist and Fog 47 8.3 47 8.3 100 100 NE 8 13 30.14 1021 2 3 0.00 0.00
3:03 am 03:03 Cloudy with Mist and Fog 47 8.3 47 8.3 100 100 ENE 8 13 30.12 1020 3 4 0.00 0.00
3:53 am 03:53 Cloudy with Mist and Fog 47 8.3 47 8.3 100 100 ENE 8 13 30.12 1020 3 5 0.00 0.00
4:20 am 04:20 Cloudy with Mist and Fog 48 9 46 8 94 94 ENE 9 15 30.12 1020 3 4 0.00 0.00
4:33 am 04:33 Cloudy with Mist and Fog 48 8.9 47 8.3 96 96 NE 6 9 30.12 1020 3 4 0.00 0.00
4:43 am 04:43 Cloudy with Mist and Fog 48 8.9 47 8.3 96 96 NE 6 9 30.12 1020 2 3 0.00 0.00
4:53 am 04:53 Cloudy with Mist and Fog 48 8.9 47 8.3 96 96 NE 8 13 30.11 1020 2 3 0.00 0.00
5:40 am 05:40 Cloudy with Mist and Fog 48 9 46 8 94 94 NE 7 11 30.12 1020 2 3 0.00 0.00
5:53 am 05:53 Cloudy with Light Rain 48 8.9 47 8.3 96 96 NE 6 9 30.11 1020 2 3 0.00 0.03
6:05 am 06:05 Cloudy with Mist and Fog 48 8.9 47 8.3 96 96 NE 7 11 30.12 1020 2 3 0.01 0.25
6:37 am 06:37 Cloudy with Mist and Fog 48 8.9 47 8.3 96 96 NE 3 6 30.12 1020 2 3 0.01 0.25
6:53 am 06:53 Cloudy with Mist and Fog 48 8.9 47 8.3 96 96 E 6 9 30.11 1020 2 3 0.01 0.25
7:14 am 07:14 Cloudy with Mist and Fog 48 9 48 9 100 100 E 5 7 30.12 1020 3 5 0.00 0.00
7:21 am 07:21 Cloudy with Mist and Fog 48 8.9 47 8.3 96 96 E 3 6 30.12 1020 5 8 0.00 0.00
7:48 am 07:48 Cloudy with Light Rain 48 9 46 8 94 94 NNW 8 13 30.12 1020 3 4 0.00 0.00
7:53 am 07:53 Cloudy with Light Rain 48 8.9 48 8.9 100 100 NNW 8 13 30.14 1021 3 4 0.01 0.25
8:14 am 08:14 Cloudy with Light Rain 48 9 46 8 94 94 NNW 9 15 30.15 1021 2 2 0.00 0.00
8:25 am 08:25 Cloudy with Light Rain 48 8.9 47 8.3 96 96 NNW 9 15 30.15 1021 2 3 0.01 0.25
8:38 am 08:38 Cloudy with Mist and Fog 48 9 46 8 94 94 NNW 10 17 30.15 1021 3 5 0.00 0.00
8:53 am 08:53 Cloudy with Light Rain 48 8.9 47 8.3 96 96 NNW 12 19 30.15 1021 3 5 0.01 0.25
9:53 am 09:53 Cloudy 49 9.4 47 8.3 93 93 N 10 17 30.14 1021 10 16 0.00 0.03
10:53 am 10:53 Cloudy 51 10.6 48 8.9 89 89 NNE 6 9 30.13 1020 10 16 0.00 0.00
11:53 am 11:53 Cloudy 53 11.7 49 9.4 86 86 NE 5 7 30.13 1020 10 16 0.00 0.00
12:40 pm 12:40 Cloudy 53 11.7 49 9.4 86 86 Calm 30.09 1019 10 16 0.00 0.00
12:53 pm 12:53 Cloudy 54 12.2 49 9.4 83 83 N 3 6 30.13 1020 10 16 0.00 0.00
1:53 pm 13:53 Cloudy 55 12.8 50 10 83 83 NNW 7 11 30.13 1020 10 16 0.00 0.00
2:53 pm 14:53 Cloudy 54 12.2 49 9.4 83 83 NNW 10 17 30.12 1020 10 16 0.00 0.00
3:53 pm 15:53 Cloudy 55 12.8 49 9.4 80 80 N 8 13 30.12 1020 10 16 0.00 0.00
4:53 pm 16:53 Cloudy 55 12.8 49 9.4 80 80 NNE 8 13 30.11 1020 10 16 0.00 0.00
5:53 pm 17:53 Cloudy 54 12.2 49 9.4 83 83 ENE 7 11 30.12 1020 10 16 0.00 0.00
6:53 pm 18:53 Cloudy 53 11.7 49 9.4 86 86 NNE 5 7 30.13 1020 9 14 0.00 0.00
7:53 pm 19:53 Cloudy 53 11.7 49 9.4 86 86 NE 5 7 30.13 1020 10 16 0.00 0.00
8:53 pm 20:53 Cloudy 52 11.1 49 9.4 89 89 NE 5 7 30.14 1021 10 16 0.00 0.00
9:53 pm 21:53 Cloudy 53 11.7 49 9.4 86 86 NE 6 9 30.14 1021 10 16 0.00 0.00
10:53 pm 22:53 Cloudy 52 11.1 49 9.4 89 89 E 8 13 30.14 1021 10 16 0.00 0.00
11:53 pm 23:53 Cloudy 52 11.1 49 9.4 89 89 E 6 9 30.12 1020 10 16 0.00 0.00

Powered by AerisWeather